| time (UTC) | temp F | wind direction | speed MPH | gust MPH | rain 1hr in | rain 24hr in | rain mn in | humidity % | barometer mb |
| 20260505225634 | 76 | 90 | 5.0 | 16.0 | 0.00 | 0.04 | 0.04 | 45 | 1007.5 |
| 20260505225131 | 77 | 155 | 5.0 | 17.0 | 0.00 | 0.04 | 0.04 | 45 | 1007.2 |
| 20260505224627 | 77 | 349 | 5.0 | 19.0 | 0.00 | 0.04 | 0.04 | 44 | 1007.2 |
| 20260505224125 | 78 | 214 | 7.0 | 20.0 | 0.00 | 0.04 | 0.04 | 44 | 1007.2 |
| 20260505223622 | 78 | 323 | 10.0 | 24.0 | 0.00 | 0.04 | 0.04 | 43 | 1007.2 |
| 20260505223118 | 78 | 214 | 10.0 | 24.0 | 0.00 | 0.04 | 0.04 | 41 | 1007.2 |
| 20260505222615 | 78 | 238 | 9.0 | 20.0 | 0.00 | 0.04 | 0.04 | 41 | 1007.2 |
| 20260505222111 | 78 | 176 | 8.0 | 20.0 | 0.00 | 0.04 | 0.04 | 42 | 1007.2 |
| 20260505221603 | 78 | 226 | 6.0 | 17.0 | 0.00 | 0.04 | 0.04 | 42 | 1007.2 |
| 20260505221059 | 78 | 121 | 6.0 | 17.0 | 0.00 | 0.04 | 0.04 | 42 | 1006.8 |
| 20260505220556 | 79 | 89 | 8.0 | 23.0 | 0.00 | 0.04 | 0.04 | 42 | 1007.2 |
| 20260505220054 | 79 | 83 | 7.0 | 23.0 | 0.00 | 0.04 | 0.04 | 41 | 1006.8 |
| 20260505215552 | 78 | 213 | 7.0 | 22.0 | 0.00 | 0.04 | 0.04 | 44 | 1006.8 |
| 20260505215050 | 78 | 89 | 6.0 | 22.0 | 0.00 | 0.04 | 0.04 | 43 | 1006.8 |
| 20260505214548 | 79 | 274 | 6.0 | 15.0 | 0.00 | 0.04 | 0.04 | 43 | 1006.8 |
| 20260505214044 | 80 | 231 | 8.0 | 19.0 | 0.00 | 0.04 | 0.04 | 42 | 1007.2 |
| 20260505213542 | 80 | 258 | 9.0 | 20.0 | 0.00 | 0.04 | 0.04 | 41 | 1007.2 |
| 20260505213038 | 80 | 219 | 9.0 | 20.0 | 0.00 | 0.04 | 0.04 | 41 | 1007.2 |
| 20260505212535 | 80 | 259 | 9.0 | 22.0 | 0.00 | 0.04 | 0.04 | 40 | 1006.8 |
| 20260505212032 | 80 | 241 | 8.0 | 22.0 | 0.00 | 0.04 | 0.04 | 39 | 1007.2 |
| 20260505211529 | 80 | 268 | 8.0 | 20.0 | 0.00 | 0.04 | 0.04 | 40 | 1006.8 |
| 20260505211026 | 80 | 93 | 9.0 | 21.0 | 0.00 | 0.04 | 0.04 | 41 | 1006.8 |
| 20260505210522 | 80 | 245 | 10.0 | 24.0 | 0.00 | 0.04 | 0.04 | 40 | 1006.8 |
| 20260505210020 | 80 | 231 | 9.0 | 24.0 | 0.00 | 0.04 | 0.04 | 39 | 1006.8 |
| 20260505205518 | 80 | 244 | 10.0 | 24.0 | 0.00 | 0.04 | 0.04 | 40 | 1006.8 |
| 20260505205015 | 80 | 44 | 11.0 | 24.0 | 0.00 | 0.04 | 0.04 | 41 | 1007.2 |
| 20260505204512 | 80 | 276 | 11.0 | 24.0 | 0.00 | 0.04 | 0.04 | 40 | 1006.8 |
| 20260505204009 | 80 | 208 | 10.0 | 24.0 | 0.00 | 0.04 | 0.04 | 41 | 1006.8 |
| 20260505203506 | 81 | 139 | 8.0 | 22.0 | 0.00 | 0.04 | 0.04 | 41 | 1006.8 |
| 20260505203003 | 80 | 181 | 7.0 | 22.0 | 0.00 | 0.04 | 0.04 | 40 | 1006.5 |
| 20260505202459 | 80 | 236 | 7.0 | 22.0 | 0.00 | 0.04 | 0.04 | 42 | 1006.8 |
| 20260505201955 | 80 | 211 | 8.0 | 22.0 | 0.00 | 0.04 | 0.04 | 43 | 1006.8 |
| 20260505201452 | 80 | 295 | 10.0 | 20.0 | 0.00 | 0.04 | 0.04 | 42 | 1006.8 |
| 20260505200949 | 80 | 266 | 11.0 | 27.0 | 0.00 | 0.04 | 0.04 | 41 | 1006.8 |
| 20260505200447 | 80 | 264 | 13.0 | 27.0 | 0.00 | 0.04 | 0.04 | 42 | 1007.2 |
| 20260505195943 | 80 | 258 | 14.0 | 26.0 | 0.00 | 0.04 | 0.04 | 42 | 1007.2 |
| 20260505195440 | 80 | 276 | 13.0 | 26.0 | 0.00 | 0.04 | 0.04 | 42 | 1006.8 |
| 20260505194937 | 80 | 122 | 10.0 | 25.0 | 0.00 | 0.04 | 0.04 | 42 | 1007.2 |
| 20260505194435 | 81 | 265 | 9.0 | 21.0 | 0.00 | 0.04 | 0.04 | 41 | 1007.2 |
| 20260505193934 | 80 | 105 | 10.0 | 18.0 | 0.00 | 0.04 | 0.04 | 42 | 1007.2 |
| 20260505193432 | 80 | 268 | 9.0 | 18.0 | 0.00 | 0.04 | 0.04 | 42 | 1007.2 |
| 20260505192930 | 80 | 259 | 9.0 | 20.0 | 0.00 | 0.04 | 0.04 | 42 | 1007.2 |
| 20260505192428 | 80 | 264 | 11.0 | 20.0 | 0.00 | 0.04 | 0.04 | 41 | 1007.2 |
| 20260505191925 | 80 | 281 | 13.0 | 21.0 | 0.00 | 0.04 | 0.04 | 39 | 1007.2 |
| 20260505191424 | 80 | 198 | 13.0 | 21.0 | 0.00 | 0.04 | 0.04 | 38 | 1007.2 |
| 20260505190920 | 80 | 281 | 15.0 | 23.0 | 0.00 | 0.04 | 0.04 | 37 | 1007.2 |
| 20260505190416 | 80 | 239 | 16.0 | 24.0 | 0.00 | 0.04 | 0.04 | 38 | 1007.2 |
| 20260505185911 | 80 | 285 | 15.0 | 24.0 | 0.00 | 0.04 | 0.04 | 38 | 1007.2 |
| 20260505185409 | 80 | 259 | 13.0 | 24.0 | 0.00 | 0.04 | 0.04 | 39 | 1007.2 |
| 20260505184904 | 80 | 258 | 12.0 | 24.0 | 0.00 | 0.04 | 0.04 | 39 | 1007.5 |
| 20260505184401 | 80 | 207 | 15.0 | 26.0 | 0.00 | 0.04 | 0.04 | 40 | 1007.5 |
| 20260505183859 | 80 | 269 | 16.0 | 26.0 | 0.00 | 0.04 | 0.04 | 37 | 1007.5 |
| 20260505183355 | 80 | 265 | 16.0 | 30.0 | 0.00 | 0.04 | 0.04 | 38 | 1007.5 |
| 20260505182852 | 80 | 274 | 15.0 | 30.0 | 0.00 | 0.04 | 0.04 | 38 | 1007.5 |
| 20260505182349 | 80 | 235 | 16.0 | 27.0 | 0.00 | 0.04 | 0.04 | 40 | 1007.8 |
| 20260505181845 | 80 | 274 | 15.0 | 27.0 | 0.00 | 0.04 | 0.04 | 39 | 1007.5 |
| 20260505181343 | 80 | 255 | 12.0 | 27.0 | 0.00 | 0.04 | 0.04 | 39 | 1007.5 |
| 20260505180839 | 80 | 268 | 11.0 | 20.0 | 0.00 | 0.04 | 0.04 | 42 | 1007.8 |
| 20260505180336 | 80 | 266 | 11.0 | 22.0 | 0.00 | 0.04 | 0.04 | 41 | 1007.8 |
| 20260505175833 | 79 | 269 | 16.0 | 29.0 | 0.00 | 0.04 | 0.04 | 41 | 1007.8 |
| 20260505175329 | 79 | 263 | 17.0 | 29.0 | 0.00 | 0.04 | 0.04 | 42 | 1008.2 |
| 20260505174825 | 79 | 262 | 15.0 | 24.0 | 0.00 | 0.04 | 0.04 | 42 | 1008.2 |
| 20260505174323 | 79 | 228 | 15.0 | 25.0 | 0.00 | 0.04 | 0.04 | 43 | 1008.2 |
| 20260505173819 | 79 | 256 | 12.0 | 25.0 | 0.00 | 0.04 | 0.04 | 42 | 1008.2 |
| 20260505173315 | 79 | 266 | 11.0 | 24.0 | 0.00 | 0.04 | 0.04 | 43 | 1008.2 |
| 20260505172813 | 79 | 269 | 10.0 | 22.0 | 0.00 | 0.04 | 0.04 | 45 | 1008.2 |
| 20260505172310 | 79 | 255 | 10.0 | 27.0 | 0.00 | 0.04 | 0.04 | 46 | 1008.2 |
| 20260505171804 | 78 | 158 | 14.0 | 30.0 | 0.00 | 0.04 | 0.04 | 46 | 1008.5 |
| 20260505171302 | 78 | 257 | 15.0 | 30.0 | 0.00 | 0.04 | 0.04 | 46 | 1008.2 |
| 20260505170758 | 78 | 270 | 11.0 | 22.0 | 0.00 | 0.04 | 0.04 | 48 | 1008.5 |
| 20260505170255 | 78 | 206 | 9.0 | 25.0 | 0.00 | 0.04 | 0.04 | 49 | 1008.5 |
| 20260505165750 | 78 | 264 | 8.0 | 21.0 | 0.00 | 0.04 | 0.04 | 49 | 1008.5 |
| 20260505165246 | 77 | 263 | 8.0 | 17.0 | 0.00 | 0.04 | 0.04 | 54 | 1008.9 |
| 20260505164742 | 77 | 260 | 8.0 | 17.0 | 0.00 | 0.04 | 0.04 | 51 | 1008.9 |
| 20260505164239 | 77 | 200 | 9.0 | 19.0 | 0.00 | 0.04 | 0.04 | 53 | 1008.9 |
| 20260505163737 | 76 | 255 | 11.0 | 20.0 | 0.00 | 0.04 | 0.04 | 50 | 1008.9 |
| 20260505163236 | 76 | 284 | 12.0 | 22.0 | 0.00 | 0.04 | 0.04 | 51 | 1009.3 |
| 20260505162732 | 76 | 272 | 11.0 | 22.0 | 0.00 | 0.04 | 0.04 | 51 | 1009.3 |
| 20260505162229 | 76 | 257 | 10.0 | 18.0 | 0.00 | 0.04 | 0.04 | 54 | 1009.3 |
| 20260505161726 | 75 | 276 | 9.0 | 18.0 | 0.00 | 0.04 | 0.04 | 52 | 1009.3 |
| 20260505161224 | 75 | 254 | 9.0 | 16.0 | 0.00 | 0.04 | 0.04 | 51 | 1009.3 |
| 20260505160721 | 75 | 250 | 10.0 | 16.0 | 0.00 | 0.04 | 0.04 | 52 | 1009.3 |
| 20260505160219 | 75 | 257 | 9.0 | 16.0 | 0.00 | 0.04 | 0.04 | 52 | 1009.3 |
| 20260505153158 | 73 | 288 | 10.0 | 20.0 | 0.00 | 0.04 | 0.04 | 52 | 1009.6 |
| 20260505152654 | 73 | 238 | 9.0 | 16.0 | 0.00 | 0.04 | 0.04 | 56 | 1009.6 |
| 20260505152150 | 73 | 270 | 8.0 | 15.0 | 0.00 | 0.04 | 0.04 | 59 | 1010.0 |
| 20260505151646 | 73 | 272 | 8.0 | 15.0 | 0.00 | 0.04 | 0.04 | 55 | 1010.0 |
| 20260505151143 | 72 | 257 | 10.0 | 17.0 | 0.00 | 0.04 | 0.04 | 57 | 1010.0 |
| 20260505150639 | 72 | 275 | 8.0 | 17.0 | 0.00 | 0.04 | 0.04 | 59 | 1010.0 |
| 20260505150137 | 72 | 250 | 6.0 | 17.0 | 0.00 | 0.04 | 0.04 | 58 | 1010.0 |
| 20260505140605 | 67 | 257 | 4.0 | 12.0 | 0.00 | 0.04 | 0.04 | 69 | 1010.3 |
| 20260505125019 | 63 | 248 | 3.0 | 7.0 | 0.00 | 0.04 | 0.04 | 72 | 1010.6 |
| 20260505124515 | 63 | 206 | 3.0 | 7.0 | 0.00 | 0.04 | 0.04 | 73 | 1010.6 |
| 20260505124012 | 63 | 267 | 2.0 | 7.0 | 0.00 | 0.04 | 0.04 | 72 | 1010.6 |
| 20260505123508 | 64 | 259 | 0.0 | 4.0 | 0.00 | 0.04 | 0.04 | 73 | 1010.6 |
| 20260505123004 | 63 | 169 | 0.0 | 2.0 | 0.00 | 0.04 | 0.04 | 75 | 1010.3 |
| 20260505122501 | 62 | 262 | 1.0 | 2.0 | 0.00 | 0.04 | 0.04 | 74 | 1010.6 |
| 20260505121958 | 62 | 254 | 1.0 | 3.0 | 0.00 | 0.04 | 0.04 | 76 | 1010.6 |
| 20260505121455 | 61 | 219 | 1.0 | 6.0 | 0.00 | 0.04 | 0.04 | 77 | 1010.6 |
| 20260505120951 | 61 | 248 | 1.0 | 6.0 | 0.00 | 0.04 | 0.04 | 76 | 1010.6 |
| 20260505120447 | 61 | 249 | 0.0 | 3.0 | 0.00 | 0.04 | 0.04 | 76 | 1010.3 |
| 20260505115946 | 60 | 258 | 0.0 | 4.0 | 0.00 | 0.04 | 0.04 | 79 | 1010.3 |
| 20260505115443 | 60 | 258 | 1.0 | 5.0 | 0.00 | 0.04 | 0.04 | 79 | 1010.6 |
| 20260505114942 | 59 | 238 | 1.0 | 5.0 | 0.00 | 0.04 | 0.04 | 79 | 1010.3 |
| 20260505114437 | 59 | 246 | 0.0 | 5.0 | 0.00 | 0.04 | 0.04 | 79 | 1010.3 |
| 20260505113934 | 59 | 98 | 0.0 | 1.0 | 0.00 | 0.04 | 0.04 | 82 | 1010.3 |
| 20260505113430 | 58 | 98 | 0.0 | 1.0 | 0.00 | 0.04 | 0.04 | 83 | 1010.3 |
| 20260505112926 | 58 | 98 | 0.0 | 2.0 | 0.00 | 0.04 | 0.04 | 83 | 1010.0 |
| 20260505112424 | 57 | 98 | 0.0 | 2.0 | 0.00 | 0.04 | 0.04 | 83 | 1010.3 |
| 20260505111920 | 57 | 99 | 0.0 | 1.0 | 0.00 | 0.04 | 0.04 | 83 | 1010.0 |
| 20260505111415 | 57 | 234 | 0.0 | 0.0 | 0.00 | 0.04 | 0.04 | 85 | 1010.3 |
| 20260505110911 | 56 | 234 | 0.0 | 0.0 | 0.00 | 0.04 | 0.04 | 86 | 1010.0 |
| 20260505110408 | 55 | 234 | 0.0 | 0.0 | 0.00 | 0.04 | 0.04 | 88 | 1010.0 |
| 20260505101833 | 53 | 234 | 0.0 | 1.0 | 0.00 | 0.04 | 0.04 | 85 | 1009.6 |
| 20260505101328 | 53 | 234 | 0.0 | 2.0 | 0.00 | 0.04 | 0.04 | 85 | 1010.0 |
| 20260505100824 | 53 | 234 | 0.0 | 2.0 | 0.00 | 0.04 | 0.04 | 85 | 1009.6 |
| 20260505100321 | 54 | 242 | 0.0 | 2.0 | 0.00 | 0.04 | 0.04 | 85 | 1009.6 |
| 20260505095817 | 54 | 281 | 1.0 | 3.0 | 0.01 | 0.04 | 0.04 | 85 | 1009.6 |
| 20260505095315 | 54 | 37 | 2.0 | 4.0 | 0.01 | 0.04 | 0.04 | 85 | 1009.6 |
| 20260505094810 | 54 | 169 | 1.0 | 4.0 | 0.01 | 0.04 | 0.04 | 86 | 1009.6 |
| 20260505094308 | 54 | 178 | 1.0 | 4.0 | 0.02 | 0.04 | 0.04 | 86 | 1009.3 |
| 20260505093803 | 54 | 259 | 2.0 | 7.0 | 0.04 | 0.04 | 0.04 | 85 | 1009.3 |
| 20260505093301 | 54 | 247 | 1.0 | 8.0 | 0.04 | 0.04 | 0.04 | 84 | 1009.6 |
| 20260505092757 | 55 | 268 | 0.0 | 8.0 | 0.04 | 0.04 | 0.04 | 83 | 1009.6 |
| 20260505092256 | 55 | 86 | 1.0 | 2.0 | 0.04 | 0.04 | 0.04 | 82 | 1009.3 |
| 20260505091753 | 55 | 77 | 2.0 | 4.0 | 0.04 | 0.04 | 0.04 | 81 | 1009.6 |
| 20260505091251 | 55 | 69 | 2.0 | 4.0 | 0.04 | 0.04 | 0.04 | 81 | 1009.6 |
| 20260505090748 | 56 | 38 | 2.0 | 6.0 | 0.04 | 0.04 | 0.04 | 80 | 1010.0 |
| 20260505090246 | 56 | 290 | 2.0 | 6.0 | 0.04 | 0.04 | 0.04 | 79 | 1010.0 |
| 20260505085743 | 56 | 346 | 1.0 | 4.0 | 0.03 | 0.03 | 0.03 | 78 | 1010.0 |
| 20260505085242 | 56 | 293 | 2.0 | 6.0 | 0.03 | 0.03 | 0.03 | 76 | 1010.0 |
| 20260505084738 | 57 | 283 | 4.0 | 9.0 | 0.03 | 0.03 | 0.03 | 74 | 1010.0 |
| 20260505084238 | 57 | 262 | 4.0 | 9.0 | 0.02 | 0.02 | 0.02 | 71 | 1010.0 |
| 20260505083734 | 57 | 278 | 3.0 | 7.0 | 0.00 | 0.00 | 0.00 | 69 | 1010.3 |
| 20260505083231 | 57 | 299 | 2.0 | 5.0 | 0.00 | 0.00 | 0.00 | 69 | 1010.0 |
| 20260505082727 | 56 | 274 | 1.0 | 3.0 | 0.00 | 0.00 | 0.00 | 70 | 1010.0 |
| 20260505082224 | 56 | 270 | 1.0 | 2.0 | 0.00 | 0.00 | 0.00 | 69 | 1009.6 |
| 20260505081720 | 56 | 270 | 1.0 | 2.0 | 0.00 | 0.00 | 0.00 | 69 | 1009.6 |
| 20260505081218 | 56 | 319 | 1.0 | 2.0 | 0.00 | 0.00 | 0.00 | 69 | 1009.6 |
| 20260505080715 | 56 | 319 | 0.0 | 2.0 | 0.00 | 0.00 | 0.00 | 69 | 1009.3 |
| 20260505080210 | 56 | 319 | 1.0 | 2.0 | 0.00 | 0.00 | 0.00 | 69 | 1009.3 |
| 20260505075706 | 56 | 262 | 0.0 | 1.0 | 0.00 | 0.00 | 0.00 | 68 | 1009.3 |
| 20260505075203 | 56 | 263 | 0.0 | 1.0 | 0.00 | 0.00 | 0.00 | 68 | 1009.3 |
| 20260505074700 | 56 | 263 | 0.0 | 1.0 | 0.00 | 0.00 | 0.00 | 68 | 1009.3 |
| 20260505074157 | 56 | 263 | 0.0 | 1.0 | 0.00 | 0.00 | 0.00 | 67 | 1009.3 |
| 20260505073655 | 56 | 262 | 0.0 | 1.0 | 0.00 | 0.00 | 0.00 | 67 | 1009.3 |
| 20260505073153 | 56 | 263 | 0.0 | 0.0 | 0.00 | 0.00 | 0.00 | 67 | 1009.6 |
| 20260505072648 | 56 | 263 | 0.0 | 0.0 | 0.00 | 0.00 | 0.00 | 67 | 1009.3 |
| 20260505072145 | 56 | 263 | 0.0 | 0.0 | 0.00 | 0.00 | 0.00 | 68 | 1009.3 |
| 20260505071640 | 56 | 263 | 0.0 | 0.0 | 0.00 | 0.00 | 0.00 | 68 | 1009.3 |
| 20260505071139 | 56 | 263 | 0.0 | 0.0 | 0.00 | 0.00 | 0.00 | 67 | 1009.3 |
| 20260505070635 | 56 | 262 | 0.0 | 1.0 | 0.00 | 0.00 | 0.00 | 67 | 1009.3 |
| 20260505070132 | 56 | 262 | 0.0 | 1.0 | 0.00 | 0.00 | 0.00 | 67 | 1009.3 |
| 20260505065628 | 55 | 262 | 0.0 | 0.0 | 0.00 | 0.00 | 0.00 | 68 | 1009.3 |
| 20260505065124 | 56 | 262 | 0.0 | 1.0 | 0.00 | 0.00 | 0.00 | 67 | 1009.3 |
| 20260505064621 | 55 | 263 | 0.0 | 1.0 | 0.00 | 0.00 | 0.00 | 68 | 1009.3 |
| 20260505064120 | 55 | 262 | 0.0 | 0.0 | 0.00 | 0.00 | 0.00 | 67 | 1009.3 |
| 20260505063617 | 55 | 263 | 0.0 | 0.0 | 0.00 | 0.00 | 0.00 | 66 | 1009.3 |
| 20260505063113 | 56 | 263 | 0.0 | 0.0 | 0.00 | 0.00 | 0.00 | 66 | 1009.6 |
| 20260505062609 | 56 | 263 | 0.0 | 0.0 | 0.00 | 0.00 | 0.00 | 66 | 1009.6 |
| 20260505062107 | 56 | 262 | 0.0 | 0.0 | 0.00 | 0.00 | 0.00 | 66 | 1009.6 |
| 20260505061604 | 56 | 263 | 0.0 | 0.0 | 0.00 | 0.00 | 0.00 | 66 | 1009.6 |
| 20260505061102 | 56 | 263 | 0.0 | 0.0 | 0.00 | 0.00 | 0.00 | 65 | 1009.6 |
| 20260505060559 | 56 | 263 | 0.0 | 0.0 | 0.00 | 0.00 | 0.00 | 64 | 1009.6 |
| 20260505060056 | 57 | 263 | 0.0 | 0.0 | 0.00 | 0.00 | 0.00 | 64 | 1009.6 |
| 20260505055551 | 57 | 262 | 0.0 | 1.0 | 0.00 | 0.00 | 0.00 | 64 | 1009.6 |
| 20260505055048 | 57 | 263 | 0.0 | 1.0 | 0.00 | 0.00 | 0.00 | 64 | 1009.6 |
| 20260505054545 | 58 | 263 | 0.0 | 2.0 | 0.00 | 0.00 | 0.00 | 63 | 1009.6 |
| 20260505054043 | 58 | 263 | 0.0 | 2.0 | 0.00 | 0.00 | 0.00 | 63 | 1009.6 |
| 20260505053540 | 59 | 254 | 1.0 | 2.0 | 0.00 | 0.00 | 0.00 | 62 | 1009.6 |
| 20260505053037 | 59 | 254 | 2.0 | 3.0 | 0.00 | 0.00 | 0.00 | 61 | 1009.6 |
| 20260505052534 | 59 | 250 | 2.0 | 3.0 | 0.00 | 0.00 | 0.00 | 62 | 1009.6 |
| 20260505052031 | 59 | 257 | 2.0 | 4.0 | 0.00 | 0.00 | 0.00 | 62 | 1009.6 |
| 20260505051528 | 59 | 243 | 2.0 | 5.0 | 0.00 | 0.00 | 0.00 | 61 | 1009.6 |
| 20260505051026 | 59 | 255 | 2.0 | 7.0 | 0.00 | 0.00 | 0.00 | 61 | 1009.6 |
| 20260505050524 | 59 | 239 | 2.0 | 7.0 | 0.00 | 0.00 | 0.00 | 62 | 1009.6 |
| 20260505041451 | 58 | 252 | 1.0 | 3.0 | 0.00 | 0.00 | 0.00 | 61 | 1009.3 |
| 20260505040948 | 58 | 253 | 1.0 | 3.0 | 0.00 | 0.00 | 0.00 | 61 | 1009.3 |
| 20260505040446 | 59 | 260 | 0.0 | 2.0 | 0.00 | 0.00 | 0.00 | 61 | 1009.3 |
| 20260505035943 | 58 | 260 | 0.0 | 3.0 | 0.00 | 0.00 | 0.00 | 61 | 1008.9 |
| 20260505035439 | 58 | 260 | 0.0 | 3.0 | 0.00 | 0.00 | 0.00 | 61 | 1008.9 |
| 20260505034936 | 58 | 255 | 0.0 | 1.0 | 0.00 | 0.00 | 0.00 | 61 | 1008.9 |
| 20260505034432 | 58 | 255 | 0.0 | 1.0 | 0.00 | 0.00 | 0.00 | 61 | 1009.3 |
| 20260505033930 | 58 | 255 | 0.0 | 1.0 | 0.00 | 0.00 | 0.00 | 61 | 1009.3 |
| 20260505033426 | 58 | 255 | 0.0 | 1.0 | 0.00 | 0.00 | 0.00 | 61 | 1009.3 |
| 20260505032925 | 58 | 255 | 0.0 | 0.0 | 0.00 | 0.00 | 0.00 | 60 | 1009.3 |
| 20260505032421 | 59 | 255 | 0.0 | 1.0 | 0.00 | 0.00 | 0.00 | 59 | 1009.3 |
| 20260505031918 | 59 | 255 | 0.0 | 2.0 | 0.00 | 0.00 | 0.00 | 58 | 1009.3 |
| 20260505031415 | 59 | 255 | 1.0 | 2.0 | 0.00 | 0.00 | 0.00 | 59 | 1009.3 |
| 20260505030912 | 60 | 255 | 0.0 | 1.0 | 0.00 | 0.00 | 0.00 | 59 | 1009.6 |
| 20260505030408 | 60 | 255 | 0.0 | 1.0 | 0.00 | 0.00 | 0.00 | 57 | 1009.6 |
| 20260505025903 | 60 | 255 | 0.0 | 2.0 | 0.00 | 0.00 | 0.00 | 56 | 1009.6 |
| 20260505025401 | 61 | 255 | 1.0 | 3.0 | 0.00 | 0.00 | 0.00 | 56 | 1009.6 |
| 20260505024900 | 61 | 258 | 1.0 | 3.0 | 0.00 | 0.00 | 0.00 | 56 | 1009.6 |
| 20260505024357 | 61 | 259 | 1.0 | 4.0 | 0.00 | 0.00 | 0.00 | 56 | 1009.6 |
| 20260505023854 | 61 | 250 | 1.0 | 4.0 | 0.00 | 0.00 | 0.00 | 56 | 1009.6 |
| 20260505023351 | 62 | 254 | 2.0 | 6.0 | 0.00 | 0.00 | 0.00 | 55 | 1009.6 |
| 20260505022848 | 62 | 252 | 3.0 | 6.0 | 0.00 | 0.00 | 0.00 | 55 | 1009.6 |
| 20260505022345 | 62 | 257 | 3.0 | 7.0 | 0.00 | 0.00 | 0.00 | 54 | 1009.6 |
| 20260505021842 | 62 | 258 | 3.0 | 7.0 | 0.00 | 0.00 | 0.00 | 54 | 1009.6 |
| 20260505021338 | 62 | 258 | 3.0 | 6.0 | 0.00 | 0.00 | 0.00 | 54 | 1010.0 |
| 20260505020834 | 62 | 261 | 3.0 | 6.0 | 0.00 | 0.00 | 0.00 | 54 | 1009.6 |
| 20260505020330 | 62 | 248 | 3.0 | 5.0 | 0.00 | 0.00 | 0.00 | 54 | 1009.6 |
| 20260505015827 | 62 | 247 | 3.0 | 5.0 | 0.00 | 0.00 | 0.00 | 54 | 1009.6 |
| 20260505015324 | 62 | 254 | 3.0 | 5.0 | 0.00 | 0.00 | 0.00 | 54 | 1009.6 |
| 20260505014821 | 62 | 255 | 3.0 | 5.0 | 0.00 | 0.00 | 0.00 | 54 | 1009.6 |
| 20260505014318 | 63 | 257 | 3.0 | 6.0 | 0.00 | 0.00 | 0.00 | 54 | 1009.6 |
| 20260505013815 | 63 | 255 | 3.0 | 6.0 | 0.00 | 0.00 | 0.00 | 53 | 1009.6 |
| 20260505013312 | 63 | 251 | 3.0 | 6.0 | 0.00 | 0.00 | 0.00 | 52 | 1009.6 |
| 20260505012811 | 63 | 266 | 2.0 | 6.0 | 0.00 | 0.00 | 0.00 | 52 | 1009.6 |
| 20260505012308 | 63 | 212 | 3.0 | 6.0 | 0.00 | 0.00 | 0.00 | 52 | 1009.6 |
| 20260505011803 | 63 | 226 | 3.0 | 8.0 | 0.00 | 0.00 | 0.00 | 52 | 1009.3 |
| 20260505011301 | 63 | 195 | 2.0 | 8.0 | 0.00 | 0.00 | 0.00 | 52 | 1009.3 |
| 20260505010756 | 63 | 214 | 2.0 | 8.0 | 0.00 | 0.00 | 0.00 | 52 | 1009.3 |
| 20260505010253 | 63 | 271 | 2.0 | 7.0 | 0.00 | 0.00 | 0.00 | 51 | 1009.3 |
| 20260505005749 | 64 | 233 | 2.0 | 7.0 | 0.00 | 0.00 | 0.00 | 51 | 1009.3 |
| 20260505005246 | 64 | 250 | 2.0 | 7.0 | 0.00 | 0.00 | 0.00 | 51 | 1009.3 |
| 20260505004743 | 64 | 217 | 3.0 | 12.0 | 0.00 | 0.00 | 0.00 | 51 | 1008.9 |
| 20260505004239 | 64 | 253 | 3.0 | 12.0 | 0.00 | 0.00 | 0.00 | 50 | 1008.9 |
| 20260505003737 | 64 | 242 | 3.0 | 11.0 | 0.00 | 0.00 | 0.00 | 50 | 1008.9 |
| 20260505003235 | 64 | 262 | 3.0 | 9.0 | 0.00 | 0.00 | 0.00 | 50 | 1008.9 |
| 20260505002731 | 64 | 214 | 2.0 | 9.0 | 0.00 | 0.00 | 0.00 | 50 | 1008.9 |
| 20260505002228 | 64 | 270 | 2.0 | 10.0 | 0.00 | 0.00 | 0.00 | 50 | 1008.9 |
| 20260505001725 | 65 | 270 | 3.0 | 10.0 | 0.00 | 0.00 | 0.00 | 50 | 1008.9 |
| 20260505001223 | 65 | 238 | 2.0 | 10.0 | 0.00 | 0.00 | 0.00 | 50 | 1008.5 |
| 20260505000720 | 65 | 266 | 2.0 | 8.0 | 0.00 | 0.00 | 0.00 | 49 | 1008.5 |
| 20260505000219 | 65 | 73 | 3.0 | 10.0 | 0.00 | 0.00 | 0.00 | 49 | 1008.5 |
| 20260504235714 | 66 | 288 | 4.0 | 13.0 | 0.00 | 0.00 | 0.00 | 48 | 1008.5 |
| 20260504235210 | 66 | 285 | 4.0 | 13.0 | 0.00 | 0.00 | 0.00 | 49 | 1008.5 |
| 20260504234708 | 66 | 347 | 3.0 | 10.0 | 0.00 | 0.00 | 0.00 | 48 | 1008.5 |
| 20260504234205 | 66 | 244 | 3.0 | 10.0 | 0.00 | 0.00 | 0.00 | 48 | 1008.5 |
| 20260504233701 | 67 | 117 | 2.0 | 9.0 | 0.00 | 0.00 | 0.00 | 48 | 1008.2 |
| 20260504233156 | 68 | 105 | 2.0 | 9.0 | 0.00 | 0.00 | 0.00 | 47 | 1008.2 |
| 20260504232654 | 68 | 160 | 2.0 | 8.0 | 0.00 | 0.00 | 0.00 | 47 | 1008.2 |
| 20260504232151 | 69 | 75 | 3.0 | 9.0 | 0.00 | 0.00 | 0.00 | 46 | 1008.2 |
| 20260504231648 | 69 | 314 | 3.0 | 11.0 | 0.00 | 0.00 | 0.00 | 46 | 1008.2 |
| 20260504231144 | 70 | 276 | 3.0 | 11.0 | 0.00 | 0.00 | 0.00 | 46 | 1008.2 |
| 20260504230640 | 70 | 252 | 3.0 | 10.0 | 0.00 | 0.00 | 0.00 | 46 | 1008.2 |
| 20260504230139 | 70 | 264 | 5.0 | 13.0 | 0.00 | 0.00 | 0.00 | 45 | 1007.8 |